MOST

Last updated on Tue Sep 16 2025 00:03:34 GMT+0000 (Coordinated Universal Time)

1 27843U 03031D 25258.58623045 .00000065 00000+0 50031-4 0 9999 2 27843 98.7090 265.1394 0009288 331.3329 28.7336 14.21232900151707
UTC large
Height (km)
Speed (km/s)
/
Latitude / Longitude
Inclination (degrees)
Orbital Period (minutes)
Azimuth
Elevation
Range (km)
Doppler Factor

Next 0 passes for location: London (51.5072 / 0.1276)

Sorry there are no passes over London.